User: anonymous
Location: Albany
(35.0000°S, 118.0000°E)
Time: 07:34:13
(UTC-04:00)
Language:

Transit 2A - Orbit

View from above orbital plane
View from above orbital plane
View from above satellite
View from above satellite

Ground track
Ground track

The orbit data is extracted from the following two-line orbital elements,

1 00045U 60007A   14244.10567703  .00000351  00000-0  11702-3 0  2194
2 00045 066.6956 196.5963 0251236 054.7268 023.9658 14.33037773819378
Epoch (UTC): 01 September 2014 02:32:10
Eccentricity: 0.0251236
inclination: 66.6956°
perigee height: 602 km
apogee height: 961 km
right ascension of ascending node: 196.5963°
argument of perigee: 54.7268°
revolutions per day: 14.33037773
mean anomaly at epoch: 23.9658°
orbit number at epoch: 81937

The dashed part of the orbit path shows where the satellite is in the earth's shadow,  

DLR